TimePDT,TemperatureF,Dew PointF,Humidity,Sea Level PressureIn,VisibilityMPH,Wind Direction,Wind SpeedMPH,Gust SpeedMPH,PrecipitationIn,Events,Conditions,WindDirDegrees,DateUTC
12:15 AM,50.0,46.4,87,29.89,10.0,Calm,Calm,-,N/A,,Mostly Cloudy,0,2012-10-20 07:15:00
12:35 AM,48.2,46.4,93,29.89,10.0,Calm,Calm,-,N/A,,Mostly Cloudy,0,2012-10-20 07:35:00
12:55 AM,48.2,44.6,87,29.90,10.0,Calm,Calm,-,N/A,,Scattered Clouds,0,2012-10-20 07:55:00
1:15 AM,48.2,44.6,87,29.90,10.0,Calm,Calm,-,0.01,,Mostly Cloudy,0,2012-10-20 08:15:00
1:35 AM,48.2,44.6,87,29.90,10.0,Calm,Calm,-,0.01,,Mostly Cloudy,0,2012-10-20 08:35:00
1:55 AM,48.2,44.6,87,29.91,10.0,Calm,Calm,-,0.01,,Overcast,0,2012-10-20 08:55:00
2:15 AM,48.2,44.6,87,29.92,10.0,Calm,Calm,-,N/A,,Overcast,0,2012-10-20 09:15:00
2:35 AM,48.2,44.6,87,29.92,10.0,Calm,Calm,-,N/A,,Overcast,0,2012-10-20 09:35:00
2:55 AM,48.2,44.6,87,29.92,10.0,SSE,3.5,-,N/A,,Overcast,150,2012-10-20 09:55:00
3:15 AM,48.2,44.6,87,29.92,10.0,SSE,3.5,-,N/A,,Overcast,150,2012-10-20 10:15:00
3:35 AM,48.2,42.8,82,29.93,9.0,Calm,Calm,-,0.03,,Overcast,0,2012-10-20 10:35:00
3:55 AM,48.2,42.8,82,29.94,10.0,South,6.9,-,0.05,,Overcast,190,2012-10-20 10:55:00
4:15 AM,46.4,42.8,87,29.93,10.0,Calm,Calm,-,0.01,,Mostly Cloudy,0,2012-10-20 11:15:00
4:35 AM,46.4,42.8,87,29.94,10.0,SSE,3.5,-,0.02,,Mostly Cloudy,160,2012-10-20 11:35:00
4:55 AM,44.6,41.0,87,29.94,10.0,Calm,Calm,-,0.03,,Scattered Clouds,0,2012-10-20 11:55:00
5:15 AM,44.6,41.0,87,29.95,10.0,North,4.6,-,0.01,,Mostly Cloudy,10,2012-10-20 12:15:00
5:35 AM,46.4,39.2,76,29.94,10.0,Calm,Calm,-,0.01,,Mostly Cloudy,0,2012-10-20 12:35:00
5:55 AM,44.6,41.0,87,29.93,10.0,ESE,3.5,-,0.01,,Mostly Cloudy,110,2012-10-20 12:55:00
6:15 AM,44.6,39.2,81,29.93,10.0,SSE,4.6,-,N/A,,Partly Cloudy,160,2012-10-20 13:15:00
6:35 AM,44.6,39.2,81,29.93,10.0,SSE,4.6,-,N/A,,Mostly Cloudy,160,2012-10-20 13:35:00
6:55 AM,44.6,41.0,87,29.94,8.0,South,5.8,-,0.03,,Overcast,170,2012-10-20 13:55:00
7:15 AM,46.4,39.2,76,29.94,10.0,ESE,4.6,-,N/A,,Mostly Cloudy,120,2012-10-20 14:15:00
7:35 AM,44.6,39.2,81,29.94,10.0,SSE,4.6,-,N/A,,Mostly Cloudy,150,2012-10-20 14:35:00
7:55 AM,44.6,41.0,87,29.95,10.0,South,6.9,-,N/A,,Mostly Cloudy,170,2012-10-20 14:55:00
8:15 AM,44.6,41.0,87,29.97,10.0,Calm,Calm,-,0.01,,Overcast,0,2012-10-20 15:15:00
8:35 AM,46.4,41.0,81,29.97,10.0,Calm,Calm,-,0.01,,Overcast,0,2012-10-20 15:35:00
8:55 AM,44.6,41.0,87,29.96,10.0,SSE,3.5,-,0.01,,Mostly Cloudy,160,2012-10-20 15:55:00
9:15 AM,46.4,42.8,87,29.96,10.0,SE,4.6,-,N/A,,Partly Cloudy,140,2012-10-20 16:15:00
9:35 AM,46.4,41.0,81,29.96,10.0,ESE,5.8,-,N/A,,Clear,120,2012-10-20 16:35:00
9:55 AM,46.4,41.0,81,29.97,10.0,SE,4.6,-,N/A,,Clear,140,2012-10-20 16:55:00
10:15 AM,48.2,41.0,76,29.96,10.0,SSE,8.1,-,N/A,,Partly Cloudy,160,2012-10-20 17:15:00
10:35 AM,48.2,42.8,82,29.96,10.0,SSE,8.1,-,N/A,,Mostly Cloudy,160,2012-10-20 17:35:00
10:55 AM,48.2,41.0,76,29.96,10.0,SSE,10.4,-,N/A,,Mostly Cloudy,160,2012-10-20 17:55:00
11:15 AM,50.0,41.0,71,29.96,10.0,SSE,11.5,-,N/A,,Mostly Cloudy,160,2012-10-20 18:15:00
11:35 AM,50.0,39.2,66,29.96,10.0,SSE,10.4,-,N/A,,Mostly Cloudy,150,2012-10-20 18:35:00
11:55 AM,50.0,41.0,71,29.96,10.0,SSE,9.2,16.1,N/A,,Mostly Cloudy,150,2012-10-20 18:55:00
12:15 PM,51.8,42.8,71,29.95,10.0,SSE,10.4,16.1,N/A,,Scattered Clouds,160,2012-10-20 19:15:00
12:35 PM,53.6,42.8,67,29.93,10.0,SSE,13.8,17.3,N/A,,Mostly Cloudy,150,2012-10-20 19:35:00
12:55 PM,51.8,39.2,62,29.95,9.0,NW,5.8,-,0.01,Thunderstorm,Thunderstorm,320,2012-10-20 19:55:00
1:15 PM,46.4,39.2,76,29.95,10.0,Calm,Calm,-,0.02,,Overcast,0,2012-10-20 20:15:00
1:35 PM,48.2,39.2,71,29.94,10.0,Calm,Calm,-,0.02,,Mostly Cloudy,0,2012-10-20 20:35:00
1:55 PM,50.0,41.0,71,29.93,10.0,Calm,Calm,-,0.02,,Partly Cloudy,0,2012-10-20 20:55:00
2:15 PM,53.6,41.0,62,29.92,10.0,SE,4.6,-,N/A,,Clear,130,2012-10-20 21:15:00
2:35 PM,53.6,41.0,62,29.92,10.0,South,4.6,-,N/A,,Clear,190,2012-10-20 21:35:00
2:55 PM,55.4,39.2,54,29.91,10.0,SW,8.1,-,N/A,,Mostly Cloudy,230,2012-10-20 21:55:00
3:15 PM,53.6,37.4,54,29.91,10.0,SW,10.4,16.1,N/A,,Mostly Cloudy,230,2012-10-20 22:15:00
3:35 PM,51.8,37.4,58,29.93,10.0,SW,6.9,16.1,N/A,,Overcast,220,2012-10-20 22:35:00
3:55 PM,50.0,37.4,62,29.93,10.0,SSW,8.1,-,N/A,,Overcast,210,2012-10-20 22:55:00
4:15 PM,48.2,41.0,76,29.92,10.0,South,8.1,-,0.01,,Overcast,190,2012-10-20 23:15:00
4:35 PM,50.0,39.2,66,29.92,10.0,South,9.2,-,0.01,,Mostly Cloudy,190,2012-10-20 23:35:00
4:55 PM,48.2,39.2,71,29.92,10.0,SSE,8.1,-,0.01,,Mostly Cloudy,150,2012-10-20 23:55:00
5:15 PM,48.2,39.2,71,29.92,10.0,SE,4.6,-,N/A,,Mostly Cloudy,140,2012-10-21 00:15:00
5:35 PM,48.2,39.2,71,29.93,10.0,SSE,4.6,-,N/A,,Overcast,150,2012-10-21 00:35:00
5:55 PM,46.4,41.0,81,29.92,8.0,ESE,4.6,-,0.01,,Overcast,120,2012-10-21 00:55:00
6:15 PM,46.4,41.0,81,29.92,10.0,SE,4.6,-,0.01,,Overcast,130,2012-10-21 01:15:00
6:35 PM,46.4,41.0,81,29.92,10.0,SE,3.5,-,0.01,,Overcast,140,2012-10-21 01:35:00
6:55 PM,46.4,41.0,81,29.92,10.0,ESE,4.6,-,0.01,,Mostly Cloudy,120,2012-10-21 01:55:00
7:15 PM,46.4,39.2,76,29.92,10.0,South,3.5,-,N/A,,Overcast,170,2012-10-21 02:15:00
7:35 PM,46.4,39.2,76,29.92,10.0,SSE,5.8,-,N/A,,Overcast,150,2012-10-21 02:35:00
7:55 PM,46.4,39.2,76,29.92,10.0,SSE,5.8,-,N/A,,Overcast,150,2012-10-21 02:55:00
8:15 PM,46.4,39.2,76,29.92,10.0,South,8.1,-,N/A,,Overcast,170,2012-10-21 03:15:00
8:35 PM,46.4,39.2,76,29.92,10.0,SE,6.9,-,N/A,,Overcast,140,2012-10-21 03:35:00
8:55 PM,44.6,41.0,87,29.92,10.0,SSE,8.1,-,N/A,,Overcast,160,2012-10-21 03:55:00
9:15 PM,44.6,41.0,87,29.92,10.0,South,6.9,-,N/A,,Mostly Cloudy,170,2012-10-21 04:15:00
9:35 PM,44.6,39.2,81,29.94,10.0,NW,4.6,-,0.03,,Overcast,310,2012-10-21 04:35:00
9:55 PM,42.8,37.4,81,29.94,10.0,ESE,4.6,-,0.07,,Overcast,110,2012-10-21 04:55:00
10:15 PM,42.8,37.4,81,29.93,9.0,East,3.5,-,0.02,,Overcast,90,2012-10-21 05:15:00
10:35 PM,42.8,39.2,87,29.94,10.0,Calm,Calm,-,0.02,,Overcast,0,2012-10-21 05:35:00
10:55 PM,42.8,39.2,87,29.93,10.0,SE,5.8,-,0.03,,Mostly Cloudy,130,2012-10-21 05:55:00
11:15 PM,44.6,39.2,81,29.93,10.0,East,3.5,-,N/A,,Mostly Cloudy,100,2012-10-21 06:15:00
11:35 PM,42.8,37.4,81,29.92,10.0,ESE,3.5,-,N/A,,Mostly Cloudy,120,2012-10-21 06:35:00
11:55 PM,42.8,39.2,87,29.92,10.0,SSE,3.5,-,N/A,,Overcast,150,2012-10-21 06:55:00